CHINASAT 2D (ZX 2D)

Last updated on Jan. 28, 2020, 4:41 a.m. UTC

1 43920U 19001A   20027.76785593 -.00000341  00000-0  00000+0 0  9998
2 43920   0.0472 251.3393 0000990  58.7746 222.8143  1.00272636  3972
UTC
Height (km)
Latitude
Longitude
Inclination
Orbital Period
UTC large
Height (km)
Speed (km/s)
/
Latitude / Longitude
Inclination (degrees)
Orbital Period (minutes)
Azimuth
Elevation
Range (km)
Doppler Factor
iOS Compass Heading
iOS Angle

Next 30 passes for location: Hong Kong

Rise time Rise Azimuth (degrees) Set time Set Azimuth (degrees) Duration Max altitude (degrees)

No matching passes for this satellites